Regional Weather Roundup
Issued by NWS

Home | Current Version | Previous Version | Graphics & Text | Print | Product List | Glossary On
Versions: 1 2 3 4 5 6 7 8 9 10 11 12 13 14 15 16 17 18 19 20 21 22 23 24 25 26 27 28 29 30 31 32 33 34 35 36 37 38 39 40 41 42 43 44 45 46 47 48 49 50
000
ASUS45 KBOU 310707
RWRCO

WEATHER ROUNDUP FOR COLORADO
NATIONAL WEATHER SERVICE DENVER/BOULDER CO
100 AM MDT SUN AUG 31 2014

NOTE: "FAIR" INDICATES FEW OR NO CLOUDS BELOW 12000 FEET WITH NO
SIGNIFICANT WEATHER AND/OR OBSTRUCTIONS TO VISIBILITY.

COZ001>005-013-030-031-310800-
...NORTHWEST COLORADO...

CITY           SKY/WX    TMP DP  RH WIND       PRES   REMARKS
CRAIG          MOCLDY    62  45  53 S7        29.97F
HAYDEN         MOCLDY    63  39  42 S12       29.98F
MEEKER         CLOUDY    59  47  64 VRB3      29.97F
MOUNT WERNER   NOT AVBL
STEAMBOAT SPGS CLOUDY    57  45  64 E17       30.05F
WALDEN         PTCLDY    52  39  62 SW16G25   30.14R
$$

COZ006>008-011-310800-
...WEST CENTRAL VALLEYS...

CITY           SKY/WX    TMP DP  RH WIND       PRES   REMARKS
GRAND JUNCTION MOCLDY    70  43  37 E15       29.87S
MONTROSE       PTCLDY    64  40  41 S10       30.01F
EAGLE          PTCLDY    48  48 100 E5        30.09S
RIFLE          MOCLDY    61  48  62 E3        29.95F
DELTA          PTCLDY    65  46  50 NE7       29.96S
NUCLA          PTCLDY    66  36  32 CALM      30.04S
$$

COZ017>023-064>068-310800-
...SOUTHWEST COLORADO...

CITY           SKY/WX    TMP DP  RH WIND       PRES   REMARKS
DURANGO        CLEAR     56  39  53 N7        30.12F
CORTEZ         CLEAR     54  44  69 CALM      30.06S
PAGOSA SPRINGS CLEAR     54  34  48 CALM      30.20S
TELLURIDE      CLEAR     55  34  44 CALM      30.28S
WOLF CREEK PAS CLEAR     46  30  53 SW23G31   30.47S
$$

COZ009-010-012-014-032>034-037-058>063-310800-
...CENTRAL COLORADO...

CITY           SKY/WX    TMP DP  RH WIND       PRES   REMARKS
ASPEN          PTCLDY    49  39  68 SW6       30.12F
BUENA VISTA    CLEAR     45  39  78 CALM      30.17F
COPPER MTN     PTCLDY    52  30  43 S20G28    30.41S
BERTHOUD PASS  FAIR      41  39  93 W21G36    30.43F
COTTONWOOD PAS CLEAR     57  32  38 W3        30.28F
GUNNISON       CLEAR     48  39  71 N3        30.20F
KREMMLING      MOCLDY    54  41  62 N5        30.15R
LEADVILLE      CLEAR     38  33  82 CALM      30.27F
MONARCH PASS   CLEAR     45  32  61 SW30      30.53S
SALIDA         CLEAR     55  42  60 N8        30.21F
SUNLIGHT       MOCLDY    48  39  71 SW3       30.30F
WILKERSON PASS NOT AVBL
$$

COZ069>075-310800-
...SAN LUIS VALLEY/SANGRE DE CRISTO MOUNTAINS...

CITY           SKY/WX    TMP DP  RH WIND       PRES   REMARKS
ALAMOSA        PTCLDY    51  41  68 SW5       30.17F
LA VETA PASS   NOT AVBL
SAGUACHE       NOT AVBL
$$

COZ035-036-038>040-310800-
...NORTHERN COLORADO FRONT RANGE...

CITY           SKY/WX    TMP DP  RH WIND       PRES   REMARKS
DENVER INTL AP PTCLDY    60  46  59 S13       29.95F
DMNS CITY PARK   N/A     62  46  56 SW3       29.94S
AURORA         PTCLDY    61  44  53 S10       29.97F
FRONT RANGE AP NOT AVBL
ERIE MUNI ARPT PTCLDY    55  52  88 N3        29.93F
BOULDER MUN AP PTCLDY    61  45  55 CALM      29.94F
CENTENNIAL     PTCLDY    59  45  59 S7        29.98F
BROOMFIELD     PTCLDY    59  45  58 W5        29.96F
FORT COLLINS   PTCLDY    64  48  55 CALM      29.95S
LONGMONT       PTCLDY    60  49  68 NW3       29.95F
$$

COZ041-046-047-076>085-087-088-310800-
...PIKES PEAK/PALMER DIVIDE AND SOUTHERN FOOTHILLS...

CITY           SKY/WX    TMP DP  RH WIND       PRES   REMARKS
COLO. SPRINGS  PTCLDY    59  45  59 NW7       30.04F
A. F. ACADEMY  CLEAR     53  45  72 N6        30.06S
ELLICOTT       CLEAR     60  44  55 E12       30.01F
FALCON         CLEAR     57  43  59 N3        30.09F
FORT CARSON    CLEAR     60  43  53 NW8       30.01F
LIMON          PTCLDY    57  49  74 CALM      29.97F
MONUMENT HILL  CLEAR     52  41  66 S10       30.07F
TRINIDAD       MOCLDY    70  39  32 S8        30.02S
$$

COZ042>045-048>051-090-091-310800-
...NORTHEAST COLORADO...

CITY           SKY/WX    TMP DP  RH WIND       PRES   REMARKS
GREELEY ARPT   PTCLDY    55  48  76 CALM      29.93F
AKRON          CLOUDY    67  49  52 E7        29.91F
BURLINGTON     LGT RAIN  72  49  44 SE8G26    29.92F
WRAY             N/A     68  56  67 CALM      29.89S
STERLING       CLOUDY    63  55  77 SW7       29.85S
HOLYOKE        MOCLDY    66  54  63 S9        29.85F
FORT MORGAN    CLOUDY    62  50  65 CALM      29.89F
$$

COZ086-089-092>099-310800-
...SOUTHEAST COLORADO...

CITY           SKY/WX    TMP DP  RH WIND       PRES   REMARKS
PUEBLO         CLEAR     68  47  46 S3        29.93R
LA JUNTA       MOCLDY    73  48  41 E10       29.90R
LAMAR          CLOUDY    69  54  58 E8        29.85F
SPRINGFIELD      N/A     71  51  49 S16       29.93F
$$



USA.gov is the U.S. government's official web portal to all federal, state and local government web resources and services.